Hourly Weather Aljaraque

Today, 8 March, Monday

Time Temperature Precipitation Wind Pressure Humidity
00:00 +9°C° 0 mm 5 mps 760 mmHg 91%
01:00 +8°C° 0 mm 4 mps 759 mmHg 92%
02:00 +8°C° 0 mm 4 mps 759 mmHg 93%
03:00 +8°C° 0 mm 4 mps 759 mmHg 94%
04:00 +7°C° 0 mm 5 mps 759 mmHg 94%
05:00 +7°C° 0 mm 5 mps 759 mmHg 94%
06:00 +7°C° 0 mm 6 mps 759 mmHg 94%
07:00 +8°C° 0 mm 5 mps 759 mmHg 91%
08:00 +9°C° 0 mm 5 mps 759 mmHg 88%
09:00 +9°C° 0 mm 5 mps 759 mmHg 84%
10:00 +10°C° 0 mm 5 mps 759 mmHg 79%
11:00 +12°C° 0 mm 5 mps 760 mmHg 75%
12:00 +13°C° 0 mm 5 mps 760 mmHg 70%
13:00 +14°C° 0 mm 5 mps 759 mmHg 67%
14:00 +14°C° 0 mm 5 mps 759 mmHg 65%
15:00 +15°C° 0 mm 5 mps 758 mmHg 63%
16:00 +14°C° 0 mm 4 mps 758 mmHg 66%
17:00 +13°C° 0 mm 3 mps 758 mmHg 69%
18:00 +13°C° 0 mm 3 mps 758 mmHg 72%
19:00 +11°C° 0 mm 3 mps 759 mmHg 76%
20:00 +10°C° 0 mm 3 mps 759 mmHg 80%
21:00 +9°C° 0 mm 3 mps 760 mmHg 85%
22:00 +8°C° 0 mm 3 mps 760 mmHg 86%
23:00 +8°C° 0 mm 3 mps 760 mmHg 88%

Tomorrow, 9 March, Tuesday

Time Temperature Precipitation Wind Pressure Humidity
00:00 +8°C° 0 mm 3 mps 760 mmHg 90%
01:00 +8°C° 0 mm 3 mps 760 mmHg 90%
02:00 +7°C° 0 mm 3 mps 759 mmHg 91%
03:00 +7°C° 0 mm 3 mps 759 mmHg 92%
04:00 +7°C° 0 mm 3 mps 759 mmHg 92%
05:00 +7°C° 0 mm 2 mps 759 mmHg 92%
06:00 +7°C° 0 mm 2 mps 759 mmHg 92%
07:00 +8°C° 0 mm 2 mps 760 mmHg 86%
08:00 +9°C° 0 mm 2 mps 760 mmHg 80%
09:00 +12°C° 0 mm 2 mps 761 mmHg 74%
10:00 +14°C° 0 mm 2 mps 761 mmHg 68%
11:00 +15°C° 0 mm 2 mps 761 mmHg 63%
12:00 +18°C° 0 mm 1 mps 761 mmHg 57%
13:00 +19°C° 0 mm 1 mps 760 mmHg 55%
14:00 +19°C° 0 mm 1 mps 760 mmHg 53%
15:00 +20°C° 0 mm 1 mps 760 mmHg 51%
16:00 +19°C° 0 mm 1 mps 760 mmHg 56%
17:00 +17°C° 0 mm 2 mps 760 mmHg 61%
18:00 +16°C° 0 mm 2 mps 760 mmHg 66%
19:00 +15°C° 0 mm 2 mps 761 mmHg 72%
20:00 +13°C° 0 mm 2 mps 762 mmHg 77%
21:00 +12°C° 0 mm 2 mps 762 mmHg 83%
22:00 +11°C° 0 mm 3 mps 762 mmHg 83%
23:00 +11°C° 0 mm 3 mps 762 mmHg 83%

Day after tomorrow, 10 March, Wednesday

Time Temperature Precipitation Wind Pressure Humidity
00:00 +10°C° 0 mm 3 mps 762 mmHg 83%
01:00 +10°C° 0 mm 3 mps 763 mmHg 82%
02:00 +10°C° 0 mm 3 mps 763 mmHg 81%
03:00 +9°C° 0 mm 3 mps 763 mmHg 80%
04:00 +9°C° 0 mm 3 mps 763 mmHg 80%
05:00 +9°C° 0 mm 3 mps 763 mmHg 80%
06:00 +8°C° 0 mm 3 mps 763 mmHg 80%
07:00 +10°C° 0 mm 3 mps 764 mmHg 76%
08:00 +11°C° 0 mm 3 mps 764 mmHg 72%
09:00 +13°C° 0 mm 3 mps 765 mmHg 67%
10:00 +15°C° 0 mm 2 mps 765 mmHg 61%
11:00 +17°C° 0 mm 2 mps 765 mmHg 55%
12:00 +20°C° 0 mm 1 mps 765 mmHg 49%
13:00 +19°C° 0 mm 2 mps 765 mmHg 47%
14:00 +20°C° 0 mm 2 mps 765 mmHg 45%
15:00 +20°C° 0 mm 2 mps 765 mmHg 43%
16:00 +19°C° 0 mm 2 mps 765 mmHg 51%
17:00 +17°C° 0 mm 2 mps 765 mmHg 59%
18:00 +16°C° 0 mm 2 mps 765 mmHg 67%
19:00 +15°C° 0 mm 2 mps 766 mmHg 69%
20:00 +14°C° 0 mm 2 mps 766 mmHg 71%
21:00 +12°C° 0 mm 2 mps 767 mmHg 73%
22:00 +12°C° 0 mm 2 mps 767 mmHg 73%
23:00 +12°C° 0 mm 2 mps 767 mmHg 73%

11 March, Thursday

Time Temperature Precipitation Wind Pressure Humidity
00:00 +10°C° 0 mm 2 mps 767 mmHg 73%
01:00 +10°C° 0 mm 2 mps 767 mmHg 75%
02:00 +10°C° 0 mm 2 mps 767 mmHg 76%
03:00 +9°C° 0 mm 2 mps 767 mmHg 77%
04:00 +9°C° 0 mm 2 mps 767 mmHg 79%
05:00 +9°C° 0 mm 2 mps 767 mmHg 80%
06:00 +9°C° 0 mm 2 mps 767 mmHg 82%
07:00 +10°C° 0 mm 2 mps 767 mmHg 77%
08:00 +13°C° 0 mm 2 mps 768 mmHg 71%
09:00 +14°C° 0 mm 2 mps 768 mmHg 66%
10:00 +16°C° 0 mm 1 mps 768 mmHg 61%
11:00 +19°C° 0 mm 1 mps 768 mmHg 56%
12:00 +20°C° 0 mm 1 mps 768 mmHg 51%
13:00 +21°C° 0 mm 1 mps 768 mmHg 49%
14:00 +20°C° 0 mm 2 mps 767 mmHg 47%
15:00 +21°C° 0 mm 2 mps 767 mmHg 45%
16:00 +20°C° 0 mm 2 mps 767 mmHg 53%
17:00 +18°C° 0 mm 2 mps 767 mmHg 60%
18:00 +17°C° 0 mm 3 mps 767 mmHg 68%
19:00 +16°C° 0 mm 3 mps 767 mmHg 73%
20:00 +14°C° 0 mm 3 mps 767 mmHg 77%
21:00 +13°C° 0 mm 3 mps 767 mmHg 82%
22:00 +12°C° 0 mm 3 mps 767 mmHg 85%
23:00 +12°C° 0 mm 4 mps 767 mmHg 88%

12 March, Friday

Time Temperature Precipitation Wind Pressure Humidity
00:00 +12°C° 0 mm 4 mps 767 mmHg 91%
01:00 +11°C° 0 mm 4 mps 767 mmHg 91%
02:00 +11°C° 0 mm 4 mps 766 mmHg 91%
03:00 +11°C° 0 mm 4 mps 766 mmHg 91%
04:00 +10°C° 0 mm 4 mps 766 mmHg 91%
05:00 +10°C° 0 mm 4 mps 766 mmHg 91%
06:00 +10°C° 0 mm 4 mps 766 mmHg 91%
07:00 +11°C° 0 mm 4 mps 766 mmHg 86%
08:00 +12°C° 0 mm 5 mps 766 mmHg 81%
09:00 +14°C° 0 mm 5 mps 767 mmHg 76%
10:00 +16°C° 0 mm 5 mps 766 mmHg 70%
11:00 +17°C° 0 mm 5 mps 766 mmHg 64%
12:00 +20°C° 0 mm 5 mps 766 mmHg 59%
13:00 +21°C° 0 mm 5 mps 766 mmHg 58%
14:00 +21°C° 0 mm 6 mps 765 mmHg 57%
15:00 +21°C° 0 mm 6 mps 765 mmHg 55%
16:00 +20°C° 0 mm 6 mps 765 mmHg 60%
17:00 +19°C° 0 mm 6 mps 765 mmHg 65%
18:00 +16°C° 0 mm 6 mps 765 mmHg 69%
19:00 +15°C° 0 mm 6 mps 765 mmHg 71%
20:00 +13°C° 0 mm 6 mps 765 mmHg 73%
21:00 +11°C° 0 mm 6 mps 766 mmHg 76%
22:00 +10°C° 0 mm 6 mps 766 mmHg 77%
23:00 +9°C° 0 mm 6 mps 766 mmHg 78%

13 March, Saturday

Time Temperature Precipitation Wind Pressure Humidity
00:00 +8°C° 0 mm 6 mps 766 mmHg 79%
01:00 +8°C° 0 mm 6 mps 766 mmHg 80%
02:00 +7°C° 0 mm 5 mps 766 mmHg 81%
03:00 +6°C° 0 mm 5 mps 766 mmHg 81%
04:00 +6°C° 0 mm 5 mps 766 mmHg 82%
05:00 +6°C° 0 mm 5 mps 766 mmHg 82%
06:00 +5°C° 0 mm 4 mps 766 mmHg 82%
07:00 +7°C° 0 mm 4 mps 766 mmHg 76%
08:00 +10°C° 0 mm 4 mps 766 mmHg 70%
09:00 +11°C° 0 mm 4 mps 767 mmHg 64%
10:00 +14°C° 0 mm 3 mps 767 mmHg 56%
11:00 +17°C° 0 mm 3 mps 767 mmHg 48%
12:00 +19°C° 0 mm 2 mps 767 mmHg 39%
13:00 +20°C° 0 mm 2 mps 766 mmHg 38%
14:00 +21°C° 0 mm 2 mps 766 mmHg 36%
15:00 +23°C° 0 mm 1 mps 766 mmHg 35%
16:00 +20°C° 0 mm 2 mps 765 mmHg 44%
17:00 +19°C° 0 mm 2 mps 765 mmHg 52%
18:00 +17°C° 0 mm 2 mps 765 mmHg 61%
19:00 +16°C° 0 mm 2 mps 766 mmHg 65%
20:00 +14°C° 0 mm 2 mps 766 mmHg 69%
21:00 +13°C° 0 mm 2 mps 767 mmHg 74%
22:00 +12°C° 0 mm 2 mps 767 mmHg 73%
23:00 +12°C° 0 mm 2 mps 767 mmHg 73%
Show more